TimeAKST,TemperatureF,Dew PointF,Humidity,Sea Level PressureIn,VisibilityMPH,Wind Direction,Wind SpeedMPH,Gust SpeedMPH,PrecipitationIn,Events,Conditions,WindDirDegrees,DateUTC
12:16 AM,37.4,28.4,70,29.19,10.0,SE,28.8,34.5,N/A,,Overcast,140,2013-02-07 09:16:00
12:36 AM,37.4,28.4,70,29.19,10.0,SSE,26.5,35.7,N/A,,Overcast,150,2013-02-07 09:36:00
12:56 AM,37.4,28.4,70,29.20,10.0,SSE,21.9,27.6,N/A,,Overcast,150,2013-02-07 09:56:00
1:16 AM,37.4,28.4,70,29.20,10.0,SSE,17.3,-,N/A,,Overcast,160,2013-02-07 10:16:00
1:36 AM,37.4,28.4,70,29.19,10.0,SSE,24.2,-,N/A,,Overcast,160,2013-02-07 10:36:00
1:56 AM,37.4,30.2,75,29.19,10.0,SSE,17.3,-,N/A,,Overcast,160,2013-02-07 10:56:00
2:16 AM,37.4,30.2,75,29.19,10.0,SSE,15.0,20.7,N/A,,Overcast,160,2013-02-07 11:16:00
2:36 AM,39.2,30.2,70,29.18,10.0,South,10.4,-,N/A,,Overcast,170,2013-02-07 11:36:00
2:56 AM,39.2,30.2,70,29.18,10.0,South,9.2,20.7,N/A,,Overcast,170,2013-02-07 11:56:00
3:16 AM,39.2,30.2,70,29.18,10.0,South,12.7,-,N/A,,Overcast,170,2013-02-07 12:16:00
3:36 AM,39.2,30.2,70,29.18,10.0,South,9.2,-,N/A,,Overcast,170,2013-02-07 12:36:00
3:56 AM,37.4,30.2,75,29.17,10.0,South,9.2,-,N/A,,Overcast,180,2013-02-07 12:56:00
4:16 AM,37.4,30.2,75,29.17,10.0,South,9.2,-,N/A,,Overcast,190,2013-02-07 13:16:00
4:36 AM,37.4,30.2,75,29.16,10.0,South,6.9,-,N/A,,Overcast,190,2013-02-07 13:36:00
4:56 AM,37.4,28.4,70,29.16,10.0,South,9.2,-,N/A,,Overcast,190,2013-02-07 13:56:00
5:16 AM,35.6,28.4,75,29.16,10.0,South,9.2,-,N/A,,Overcast,190,2013-02-07 14:16:00
5:36 AM,35.6,28.4,75,29.17,10.0,SSE,8.1,-,N/A,,Overcast,160,2013-02-07 14:36:00
5:56 AM,37.4,30.2,75,29.17,10.0,Calm,Calm,-,N/A,,Overcast,0,2013-02-07 14:56:00
6:16 AM,35.6,30.2,81,29.17,10.0,Calm,Calm,-,N/A,,Overcast,0,2013-02-07 15:16:00
6:36 AM,37.4,30.2,75,29.16,10.0,South,8.1,-,N/A,,Overcast,170,2013-02-07 15:36:00
6:56 AM,37.4,30.2,75,29.16,10.0,South,5.8,-,N/A,,Overcast,170,2013-02-07 15:56:00
7:16 AM,37.4,30.2,75,29.16,10.0,Calm,Calm,-,N/A,,Overcast,0,2013-02-07 16:16:00
7:36 AM,37.4,30.2,75,29.15,10.0,Calm,Calm,-,N/A,,Overcast,0,2013-02-07 16:36:00
7:56 AM,37.4,30.2,75,29.14,10.0,ENE,4.6,-,N/A,,Overcast,70,2013-02-07 16:56:00
8:16 AM,33.8,28.4,81,29.14,10.0,NNE,5.8,-,N/A,,Overcast,20,2013-02-07 17:16:00
8:36 AM,33.8,28.4,81,29.14,10.0,NE,8.1,-,N/A,,Overcast,50,2013-02-07 17:36:00
8:56 AM,33.8,28.4,81,29.14,10.0,East,4.6,-,N/A,,Mostly Cloudy,100,2013-02-07 17:56:00
9:16 AM,33.8,28.4,81,29.14,10.0,East,6.9,-,N/A,,Mostly Cloudy,80,2013-02-07 18:16:00
9:36 AM,33.8,28.4,81,29.13,10.0,ENE,6.9,-,N/A,,Partly Cloudy,60,2013-02-07 18:36:00
9:56 AM,33.8,26.6,75,29.15,10.0,ENE,6.9,-,N/A,,Clear,70,2013-02-07 18:56:00
10:16 AM,33.8,26.6,75,29.15,10.0,East,5.8,-,N/A,,Clear,100,2013-02-07 19:16:00
10:36 AM,35.6,26.6,70,29.15,10.0,SSE,8.1,-,N/A,,Clear,150,2013-02-07 19:36:00
10:56 AM,35.6,28.4,75,29.15,10.0,SSE,10.4,-,N/A,,Clear,160,2013-02-07 19:56:00
11:16 AM,37.4,26.6,65,29.15,10.0,SSE,10.4,-,N/A,,Clear,160,2013-02-07 20:16:00
11:36 AM,37.4,26.6,65,29.15,10.0,SSE,12.7,-,N/A,,Partly Cloudy,160,2013-02-07 20:36:00
11:56 AM,37.4,28.4,70,29.15,10.0,SSE,13.8,-,N/A,,Mostly Cloudy,160,2013-02-07 20:56:00
12:16 PM,37.4,28.4,70,29.16,10.0,South,11.5,-,N/A,,Overcast,170,2013-02-07 21:16:00
12:36 PM,37.4,28.4,70,29.16,10.0,South,13.8,-,N/A,,Overcast,170,2013-02-07 21:36:00
12:56 PM,39.2,28.4,65,29.17,10.0,SSE,13.8,-,N/A,,Overcast,160,2013-02-07 21:56:00
1:16 PM,37.4,26.6,65,29.17,10.0,South,11.5,18.4,N/A,,Overcast,180,2013-02-07 22:16:00
1:36 PM,37.4,28.4,70,29.17,10.0,South,15.0,-,N/A,,Mostly Cloudy,170,2013-02-07 22:36:00
1:56 PM,37.4,28.4,70,29.17,10.0,South,11.5,-,N/A,,Overcast,180,2013-02-07 22:56:00
2:16 PM,39.2,28.4,65,29.18,10.0,South,11.5,-,N/A,,Overcast,170,2013-02-07 23:16:00
2:36 PM,39.2,28.4,65,29.18,10.0,South,13.8,-,N/A,,Overcast,180,2013-02-07 23:36:00
2:56 PM,37.4,28.4,70,29.19,10.0,South,12.7,-,N/A,,Overcast,180,2013-02-07 23:56:00
3:16 PM,37.4,28.4,70,29.19,10.0,South,10.4,-,N/A,,Overcast,180,2013-02-08 00:16:00
3:36 PM,37.4,28.4,70,29.20,10.0,South,10.4,-,N/A,,Overcast,180,2013-02-08 00:36:00
3:56 PM,37.4,28.4,70,29.20,10.0,SW,8.1,-,N/A,,Overcast,230,2013-02-08 00:56:00
4:16 PM,37.4,28.4,70,29.22,10.0,WSW,8.1,-,N/A,,Overcast,240,2013-02-08 01:16:00
4:36 PM,35.6,26.6,70,29.22,10.0,WSW,12.7,-,N/A,,Overcast,250,2013-02-08 01:36:00
4:56 PM,35.6,26.6,70,29.23,10.0,West,17.3,-,N/A,,Overcast,260,2013-02-08 01:56:00
5:16 PM,33.8,26.6,75,29.24,10.0,WSW,10.4,-,N/A,,Overcast,250,2013-02-08 02:16:00
5:36 PM,33.8,26.6,75,29.25,10.0,WSW,9.2,-,N/A,,Overcast,240,2013-02-08 02:36:00
5:56 PM,33.8,26.6,75,29.26,10.0,WSW,9.2,-,N/A,,Overcast,250,2013-02-08 02:56:00
6:16 PM,33.8,26.6,75,29.27,10.0,WSW,11.5,-,N/A,,Overcast,240,2013-02-08 03:16:00
6:36 PM,33.8,26.6,75,29.27,10.0,WSW,9.2,-,N/A,,Overcast,250,2013-02-08 03:36:00
6:56 PM,33.8,26.6,75,29.27,10.0,SSW,4.6,-,N/A,,Mostly Cloudy,210,2013-02-08 03:56:00
7:16 PM,32.0,24.8,75,29.28,10.0,South,5.8,-,N/A,,Partly Cloudy,190,2013-02-08 04:16:00
7:36 PM,33.8,26.6,75,29.29,10.0,South,6.9,-,N/A,,Clear,170,2013-02-08 04:36:00
7:56 PM,33.8,26.6,75,29.29,10.0,South,5.8,-,N/A,,Clear,180,2013-02-08 04:56:00
8:36 PM,30.2,24.8,80,29.31,10.0,SSE,4.6,-,N/A,,Clear,150,2013-02-08 05:36:00
8:56 PM,30.2,24.8,80,29.31,10.0,SE,4.6,-,N/A,,Clear,130,2013-02-08 05:56:00
9:16 PM,30.2,24.8,80,29.31,10.0,East,4.6,-,N/A,,Clear,100,2013-02-08 06:16:00
9:56 PM,30.2,24.8,80,29.33,10.0,East,5.8,-,N/A,,Mostly Cloudy,90,2013-02-08 06:56:00
10:16 PM,30.2,21.2,69,29.33,10.0,East,5.8,-,N/A,,Overcast,90,2013-02-08 07:16:00
10:36 PM,30.2,24.8,80,29.34,10.0,East,5.8,-,N/A,,Mostly Cloudy,90,2013-02-08 07:36:00
10:56 PM,30.2,23.0,75,29.36,10.0,East,3.5,-,N/A,,Scattered Clouds,90,2013-02-08 07:56:00
11:16 PM,30.2,23.0,75,29.36,10.0,East,4.6,-,N/A,,Clear,90,2013-02-08 08:16:00
11:36 PM,30.2,21.2,69,29.36,10.0,East,4.6,-,N/A,,Clear,80,2013-02-08 08:36:00
11:56 PM,32.0,21.2,64,29.35,10.0,East,4.6,-,N/A,,Clear,100,2013-02-08 08:56:00